THORAD DELTA 1 DEB, 8396

Orbit data source: Space-Track

THORAD DELTA 1 DEB, 8396 is space debris in SSO originally from a launch on Fri, 15 Nov 1974 UTC launched from the Air Force Western Test Range (AFWTR). Debris objects in space refer to the collection of defunct objects orbiting the Earth. Examples of debris include non-operational satellites, rocket bodies, and fragments generated from explosions, collisions, or faulty payload assembly.

Loading next visibility...
Identifier
8396, 1974-089BY
Orbit
SSO
Country
Flag of USUS
Related business
Manufacturer
Unknown
Mission
Spacecraft
Bus & Motor
Unknown
Mass
Unknown
Launch date (UTC)
1974-11-15 (51 years ago)
Launch vehicle
Unknown
Launch site
Air Force Western Test Range (AFWTR)
Object type
Payload
Rocket body
Debris
Shape & HBR
Unknown shape, 0.1 m
Radar Cross Section
Small (<0.1 m²)

Expand to show TLE details & history
Last TLE update: 17 hours ago

TLE from 17 hours ago
0 THORAD DELTA 1 DEB
1 08396U 74089BY  25350.18954122  .00000025  00000-0  50416-3 0  9997
2 08396 102.1428  60.8453 0063669  62.9571 355.7555 12.42766040320026
Epoch: 2025-12-16T04:32Z
TLE epoch observation values (Epoch: 2025-12-16T04:32:56.361Z)
Latitude
56.70719°
Longitude
-111.49489°
Altitude
1,454.173 km
Speed
7.163 km/s
True Right ascension
02h 47m 16s
True Declination
56° 33' 48"
Sunlit
Object was in full shadow at epoch
Visualization orbit readout
Latitude
Unknown
Longitude
Unknown
Altitude
Unknown
Speed
Unknown
Apparent Right ascension
Unknown
Apparent Declination
Unknown
Sunlit
N/A
Visualization observer readout
Local Sidereal Time
20:33:11
Azimuth
Unknown
Elevation
Unknown
Doppler factor
Unknown
Orbital elements
Apogee altitude
1,542.59 km
Perigee altitude
1,442.367 km
Semi-major axis
7,870.616 km
Eccentricity
0.00637
Inclination
102.1428°
RAAN
60.8453°
Arg. of periapsis
62.9571°
True anomaly
355.70107°
Mean anomaly
355.7555°
Eccentric anomaly
355.72833°
Mean motion
3.10835 °/min
Orbital period
115.82 mins
BSTAR
0.00050416
Loading maneuver chart data...
Computing Atmospheric mass density...

Documentation

Showing up to 5 results
|